BREEZE-M DEB (TANK), 41390

Orbit data source: Space-Track

BREEZE-M DEB (TANK), 41390 is space debris in HEO originally from a launch on Mon, 14 Mar 2016 UTC launched from the Tyuratam Missile And Space Complex (TTMTR). Debris objects in space refer to the collection of defunct objects orbiting the Earth. Examples of debris include non-operational satellites, rocket bodies, and fragments generated from explosions, collisions, or faulty payload assembly.

Loading next visibility...
Identifier
41390, 2016-017C
Orbit
HEO
Country
Flag of CISCIS
Related business
Manufacturer
Khrunichev
Mission
Spacecraft
Bus & Motor
BRIZ TANK, Unknown motor
Mass
~1,000 kg wet, 1,000 kg dry
Launch date (UTC)
2016-03-14 (10 years ago)
Launch vehicle
Unknown
Launch site
Tyuratam Missile And Space Complex (TTMTR)
Object type
Payload
Rocket body
Debris
Shape & HBR
Torus, 2.0 m
Radar Cross Section
8.218 m², Large (>1 m²)

Expand to show TLE details & history
Last TLE update: 1 day ago

TLE from 1 day ago
0 BREEZE-M DEB (TANK)
1 41390U 16017C   25294.23712623 -.00000002  00000-0  28357-3 0  9991
2 41390  51.5704 179.8214 5901258 203.7216 111.2838  3.82661564134276
Epoch: 2025-10-21T05:41Z
TLE epoch observation values (Epoch: 2025-10-21T05:41:27.706Z)
Latitude
0.00003°
Longitude
64.5437°
Altitude
18,105.913 km
Speed
3.078 km/s
True Right ascension
11h 59m 20s
True Declination
0° 00' 00"
Sunlit
Object was in daylight at epoch
Visualization orbit readout
Latitude
Unknown
Longitude
Unknown
Altitude
Unknown
Speed
Unknown
Apparent Right ascension
Unknown
Apparent Declination
Unknown
Sunlit
N/A
Visualization observer readout
Local Sidereal Time
07:51:42
Azimuth
Unknown
Elevation
Unknown
Doppler factor
Unknown
Orbital elements
Apogee altitude
21,077.618 km
Perigee altitude
698.917 km
Semi-major axis
17,266.404 km
Eccentricity
0.59013
Inclination
51.5704°
RAAN
179.8214°
Arg. of periapsis
203.7216°
True anomaly
156.32504°
Mean anomaly
111.2838°
Eccentric anomaly
135.13563°
Mean motion
0.95662 °/min
Orbital period
376.32 mins
BSTAR
0.00028357
Loading maneuver chart data...
Computing Atmospheric mass density...
Loading historical data...
Loading historical data...
Loading historical data...
Loading historical data...
Loading historical data...
Loading historical data...
Loading historical data...
Other satellites on launch #17 in the year 2016 (2016-03-14 UTC)

Documentation

Showing up to 5 results
|